Location: Mactaquac Provincial Park
(45.9573°N, 66.8897°W)
Time: 01:50:11
(UTC-03:00)

Daily predictions for brighter satellites

Satellite Brightness Start Highest point End
(mag) Time Altitude Azimuth Time Altitude Azimuth Time Altitude Azimuth
Cosmos 2251 Rocket 3.6 00:00:16 10° NNW 00:05:29 65° WSW 00:07:02 43° S
Cosmos 1092 Rocket 4.3 00:02:41 23° SSW 00:06:38 61° WNW 00:12:43 10° N
BREEZE M DEB (TANK) 3.1 00:00:19 10° WSW 00:07:15 73° NNW 00:09:13 19° ENE
Cosmos 1378 Rocket 4.1 00:04:38 10° NNW 00:08:56 52° W 00:10:04 41° SW
Cosmos 1441 Rocket 3.4 00:07:10 10° N 00:11:00 55° ENE 00:11:03 55° E
Meteor 2-11 Rocket 4.4 00:05:58 10° N 00:12:10 76° E 00:14:18 43° SSE
Lacrosse 4 Rocket 3.3 00:11:34 10° WNW 00:14:51 20° WSW 00:15:43 19° WSW
ATLAS 5 CENTAUR R/B 3.7 00:10:38 10° WNW 00:15:45 29° WSW 00:17:52 24° SW
Cosmos 1553 Rocket 4.0 00:12:42 10° N 00:19:08 77° E 00:21:20 43° SSE
H-2A R/B 3.1 00:20:16 31° WSW 00:21:00 33° W 00:24:45 10° NNW
Meteor 1-20 Rocket 4.2 00:23:05 44° S 00:25:01 89° E 00:30:45 10° NNE
Meteor 1-25 Rocket 4.3 00:23:27 41° SSW 00:25:36 83° W 00:31:29 10° N
Cosmos 2082 4.3 00:21:05 10° NNW 00:26:39 49° ENE 00:28:48 33° ESE
ATLAS CENTAUR R/B 1.5 00:29:41 58° ENE 00:29:41 58° ENE 00:32:53 10° NE
Cosmos 1602 4.5 00:32:44 43° ENE 00:32:44 43° ENE 00:36:01 10° NNE
ARGOS Delta rocket 4.2 00:32:04 10° N 00:36:30 52° WNW 00:37:41 40° WSW
ISS -2.1 00:36:36 10° WNW 00:39:36 33° NNW 00:42:37 10° NE
Cosmos 1867 4.4 00:38:16 10° NW 00:43:11 35° WSW 00:43:51 33° SW
CENTAUR R/B 4.1 00:39:02 10° W 00:44:52 36° NNW 00:51:28 10° NNE
CZ-2C R/B 2.9 00:44:38 60° S 00:45:35 83° WSW 00:50:35 10° NNW
Okean 2 Rocket 3.3 00:45:09 55° WSW 00:45:45 61° W 00:50:09 10° N
Terra 4.0 00:45:22 13° WSW 00:47:08 15° W 00:49:56 10° NW
Mayak -0.2 00:46:46 10° NNE 00:50:09 33° E 00:50:09 33° E
USA 229 DEB 4.5 00:50:59 31° ESE 00:51:24 31° ESE 00:57:20 10° NE
Cosmos 2227 Rocket 2.1 00:47:21 10° NNW 00:53:03 87° ENE 00:54:18 56° SSE
Gbstr 26 Del rocket 2.8 00:49:25 10° WNW 00:53:22 73° NNW 00:53:22 73° NNW
Cosmos 2266 Rocket 4.0 00:52:58 50° SSE 00:54:33 70° E 01:00:41 10° NNE
Cosmos 1536 3.8 00:55:12 38° ENE 00:55:12 38° ENE 00:58:32 10° NNE
Meteor 1-11 Rocket 3.9 00:54:02 51° SSE 00:55:19 63° E 01:01:13 10° NNE
Cosmos 2315 Rocket 4.3 00:49:30 10° N 00:55:36 55° ENE 00:57:26 41° SE
Cosmos 2219 4.2 00:50:38 10° NW 00:55:44 34° WSW 00:56:51 31° SW
Cosmos 407 Rocket 4.3 00:52:01 10° N 00:57:09 45° ENE 00:58:44 36° ESE
CZ-2C R/B 2.5 00:54:20 10° NNE 00:59:32 86° WNW 01:00:33 60° SSW
Okean 1 4.5 01:00:22 10° NNW 01:03:54 33° W 01:03:54 33° W
Okean 1 Rocket 3.8 01:04:17 39° E 01:04:17 39° E 01:08:08 10° NNE
Meteor 2-4 Rocket 3.5 01:06:58 10° N 01:12:22 86° ENE 01:13:14 64° SSE
Cosmos 1656 3.8 01:12:22 52° SE 01:12:46 53° ESE 01:18:07 10° NE
Cosmos 2369 3.6 01:13:22 60° SSE 01:14:17 72° ESE 01:19:59 10° NNE
CZ-4C R/B 3.6 01:07:59 10° NNW 01:14:40 49° NE 01:21:42 12° ESE
Lacrosse 5 rocket 4.0 01:13:53 10° WNW 01:16:33 18° NNW 01:19:18 10° NNE
Meteor 1-5 Rocket 4.4 01:17:36 50° SE 01:18:31 57° E 01:23:57 10° NNE
Cosmos 1980 Rocket 3.4 01:21:57 27° ESE 01:22:13 27° ESE 01:26:51 10° NE
Cosmos 2056 Rocket 3.4 01:22:15 62° SE 01:22:34 64° ESE 01:27:37 10° NNE
CZ-4C R/B 4.1 01:24:59 40° NNE 01:24:59 40° NNE 01:27:22 10° N
Cosmos 1633 4.3 01:25:24 24° WNW 01:25:24 24° WNW 01:28:17 10° NNW
ALOS 2 3.4 01:28:20 40° W 01:28:20 40° W 01:32:21 10° NNW
BREEZE-M DEB 3.6 01:23:50 10° WNW 01:27:27 41° NW 01:27:27 41° NW
Cosmos 1238 Rocket 4.4 01:23:55 10° N 01:28:44 44° ENE 01:30:14 36° ESE
CZ-4B R/B 2.6 01:30:50 39° NE 01:30:50 39° NE 01:33:44 10° N
Cosmos 1025 Rocket 3.0 01:32:47 10° N 01:37:06 76° ENE 01:37:06 76° ENE
Cosmos 1689 Rocket 3.8 01:38:18 34° NNE 01:38:18 34° NNE 01:40:33 10° N
Nadezhda 2 Rocket 4.3 01:40:00 54° SSW 01:41:30 87° W 01:47:38 10° N
NOSS 3-1 (C) 4.4 01:41:41 28° ESE 01:42:02 28° ESE 01:47:20 10° NE
Cosmos 1500 4.5 01:44:22 32° ENE 01:44:22 32° ENE 01:47:21 10° NNE
Cosmos 1975 4.2 01:47:44 31° E 01:47:44 31° E 01:51:10 10° NNE
Cosmos 2297 Rocket 2.6 01:42:30 10° NW 01:47:51 44° WSW 01:48:16 43° WSW
Cosmos 1452 Rocket 4.0 01:48:29 45° ESE 01:48:57 46° ESE 01:54:00 10° NNE
Cosmos 1697 Rocket 2.6 01:49:13 61° S 01:50:05 73° ESE 01:55:43 10° NNE
BREEZE-M DEB (TANK) 3.6 01:52:53 28° ENE 01:52:53 28° ENE 01:55:19 10° ENE
H-2A R/B 3.6 01:48:38 10° NNE 01:51:58 32° E 01:51:58 32° E
Nadezhda 1 Rocket 4.4 01:48:39 10° N 01:54:37 52° ENE 01:56:54 35° SE
SAR-Lupe-2 4.1 01:57:10 56° N 01:57:10 56° N 02:00:04 10° NNW
GP-B 3.9 01:54:12 10° NNW 01:58:21 39° W 01:58:32 39° W
Spot 2 4.5 01:57:40 10° N 02:01:36 47° WNW 02:01:40 47° WNW
Cosmos 1892 Rocket 3.7 01:57:54 10° N 02:02:23 65° E 02:02:43 62° ESE
SL-16 R/B 3.8 02:02:24 19° ESE 02:03:32 21° E 02:07:37 10° NE
Cosmos 921 Rocket 3.0 02:04:45 71° WNW 02:04:45 71° WNW 02:09:00 10° NNE
ATLAS CENTAUR R/B 3.8 02:05:54 10° WNW 02:08:26 17° NW 02:10:58 10° N
Cosmos 614 Rocket 4.0 02:06:45 10° NNW 02:11:51 75° ENE 02:12:57 54° SE
Cosmos 2322 Rocket 3.6 02:11:23 23° ESE 02:12:38 25° ESE 02:17:09 10° NE
Cosmos 839 Rocket 4.2 02:11:47 46° SSE 02:13:10 56° ESE 02:19:12 10° NE
Okean 2 4.0 02:11:18 10° NNW 02:14:56 47° WNW 02:14:56 47° WNW
Cosmos 2360 4.4 02:14:58 51° SSE 02:16:02 60° ESE 02:21:39 10° NNE
ISS -1.9 02:13:39 10° WNW 02:16:38 31° N 02:19:35 10° ENE
SL-16 R/B 4.4 02:12:23 10° ESE 02:17:18 25° ENE 02:22:13 10° N
Cosmos 1420 Rocket 4.2 02:18:16 51° SE 02:19:02 57° ESE 02:24:08 10° NNE
Landsat 5 4.0 02:20:19 43° WNW 02:20:19 43° WNW 02:23:22 10° NNW
USA 234 3.6 02:13:34 10° ENE 02:19:47 44° SE 02:21:04 39° SSE
Cosmos 676 Rocket 4.2 02:20:50 10° NNW 02:25:53 50° WSW 02:26:14 49° WSW
Mayak 0.4 02:22:45 10° NNW 02:26:07 24° WNW 02:26:48 22° W
Cosmos 2227 4.1 02:22:48 10° NNW 02:28:27 88° WSW 02:30:09 47° SSE
Genesis I 3.6 02:26:29 10° NW 02:29:44 55° WNW 02:29:44 55° WNW
Cosmos 1666 3.7 02:32:19 36° E 02:32:28 36° E 02:36:02 10° NNE
Cosmos 1745 Rocket 3.9 02:32:55 47° SSW 02:34:49 82° W 02:41:01 10° N
Cosmos 2227 Rocket 4.1 02:33:18 10° WNW 02:36:06 15° W 02:36:06 15° W
Cosmos 1544 Rocket 3.4 02:36:00 75° SW 02:36:21 83° W 02:40:48 10° N
Resurs 1-4 Rocket 4.3 02:33:03 10° NE 02:36:23 17° E 02:39:19 11° SE
Cosmos 1066 Rocket 4.0 02:31:54 10° NNW 02:37:19 75° W 02:38:28 54° SSW
Cosmos 1741 Rocket 3.9 02:35:18 10° NNW 02:40:34 86° ENE 02:42:08 47° SSE
USA 229 DEB 4.0 02:38:23 30° WSW 02:41:56 64° NW 02:48:54 10° NE
ADEOS Rocket 3.9 02:36:06 10° NNE 02:41:57 38° E 02:44:37 25° SE
USA 229 4.0 02:38:31 30° WSW 02:42:02 64° NW 02:48:59 10° NE
Cosmos 1461 2.9 02:37:42 10° NW 02:42:03 85° NE 02:42:53 59° SE
Cosmos 1140 Rocket 3.7 02:40:17 10° NNW 02:45:15 48° WSW 02:45:42 47° WSW
NOSS 3-1 (A) 3.6 02:46:02 43° S 02:47:43 59° ESE 02:54:06 10° NE
NPP 4.3 02:47:34 10° NNE 02:52:44 45° E 02:54:48 31° SSE
Cosmos 1455 Rocket 3.0 02:52:30 60° WSW 02:52:57 64° W 02:57:19 10° N
Cosmos 2263 Rocket 2.7 02:50:28 10° NNW 02:56:08 60° ENE 03:00:53 15° SE
SWAS 4.4 02:51:57 10° NNW 02:56:15 81° ENE 02:57:16 51° SE
CZ-2D R/B 3.8 02:51:46 10° NE 02:56:16 25° E 02:59:28 15° SE
Lacrosse 5 rocket 4.2 02:54:20 10° NNW 02:56:57 17° N 02:59:39 10° NE
Cosmos 1842 3.7 02:55:28 10° N 02:59:17 55° ENE 03:00:06 45° SE
SL-08 R/B 3.6 02:58:32 32° SE 03:00:32 60° ENE 03:05:06 10° N
IRS-P3 4.5 02:56:44 10° NNE 03:02:02 58° E 03:04:04 36° SSE
CZ-4B R/B 4.0 03:04:25 12° WNW 03:04:25 12° WNW 03:05:10 10° WNW
CZ-4C R/B 3.1 02:56:33 10° NW 03:03:27 51° WSW 03:06:47 32° S
Cosmos 2360 Rocket 3.7 03:02:23 18° SE 03:05:01 26° ESE 03:09:38 10° NE
Cosmos 405 3.4 03:05:41 51° WNW 03:05:41 51° WNW 03:08:59 10° N
Cosmos 1980 Rocket 2.7 03:03:42 33° WSW 03:05:54 51° WNW 03:11:24 10° NNE
CBERS-1 4.4 03:02:06 10° NNE 03:07:09 55° E 03:09:09 34° SSE
Cosmos 1743 2.8 03:08:03 57° W 03:08:15 58° W 03:12:06 10° N
Cosmos 44 4.2 03:04:16 10° NNW 03:08:28 43° NE 03:12:43 10° ESE
PSLV R/B 4.4 03:05:30 10° N 03:10:03 46° WNW 03:11:18 37° WSW
ATLAS 3B R/B 4.4 03:07:17 10° NNW 03:13:23 33° NNE 03:19:15 10° E
PSLV R/B 4.0 03:14:48 55° SW 03:15:24 63° WSW 03:19:36 10° NNW
AQUA 4.1 03:13:14 10° NNE 03:17:59 60° E 03:19:48 35° SSE
Cosmos 1975 4.4 03:23:32 22° W 03:24:05 23° WNW 03:27:23 10° NNW
Cosmos 1602 Rocket 3.8 03:20:12 10° NNW 03:24:32 52° W 03:25:20 45° SW
H-2A R/B 3.9 03:24:28 10° NNW 03:27:42 23° WNW 03:28:35 21° W
Cosmos 1437 Rocket 2.9 03:27:15 50° SW 03:28:06 65° WNW 03:32:13 10° N
NOSS 3-1 (C) 3.8 03:29:04 27° WSW 03:32:22 60° NW 03:39:00 10° NE
Meteor 1-21 4.4 03:28:01 10° NNW 03:33:28 53° W 03:35:37 34° SSW
Cosmos 1697 Rocket 4.5 03:30:56 12° W 03:34:39 22° NW 03:39:00 10° N
Iridium 4 Rocket 4.4 03:38:37 15° SSE 03:43:21 55° E 03:48:49 10° N
Cosmos 1709 Rocket 4.3 03:42:48 29° SW 03:45:41 50° WNW 03:51:37 10° N
ADEOS 4.2 03:40:51 10° NNE 03:45:56 50° E 03:49:31 19° S
Helios 1A Rocket 3.8 03:42:14 10° N 03:45:58 37° WNW 03:47:07 30° WSW
Cosmos 1707 3.9 03:42:47 10° N 03:46:28 40° ENE 03:49:51 12° SSE
UNK 3.7 03:43:41 24° SSE 03:46:30 87° WSW 03:51:10 10° NNW
Cosmos 1726 Rocket 4.1 03:44:03 23° SSE 03:46:32 53° E 03:50:51 10° NNE
SL-16 R/B 2.3 03:44:16 30° SW 03:47:06 65° WNW 03:52:46 10° NNE
Cosmos 44 Rocket 3.1 03:44:57 10° NW 03:49:41 77° SW 03:54:26 10° SSE
BREEZE M DEB (TANK) 2.7 03:48:29 18° WSW 03:52:02 74° NNW 03:54:30 10° ENE
Meteor 2-9 Rocket 4.4 03:49:06 29° SSW 03:52:07 63° WNW 03:57:59 10° N
ISS -3.9 03:50:07 10° WNW 03:53:24 89° NE 03:56:39 10° ESE
Cosmos 1302 Rocket 4.4 03:50:24 24° S 03:53:33 60° ESE 03:58:46 10° NNE
IRS-1D 3.5 03:49:34 10° NNE 03:54:32 74° ESE 03:57:36 24° S
Spot 4 Rocket 4.1 03:50:24 10° NNE 03:55:36 79° ESE 03:58:49 24° S
Cosmos 2322 Rocket 2.5 03:53:12 26° SW 03:56:16 56° WNW 04:01:55 10° NNE
Meteor 1-4 Rocket 2.4 03:55:54 37° S 03:57:10 82° E 04:00:45 10° NNE
Cosmos 1378 4.3 03:53:44 10° N 03:57:19 42° ENE 04:00:52 10° SSE
Cosmos 1110 Rocket 4.1 03:54:55 29° SW 03:57:32 68° WNW 04:02:43 10° NNE
SL-16 R/B 2.5 03:55:29 17° S 04:00:24 67° WSW 04:06:40 10° NNW
Cosmos 1606 Rocket 3.5 03:58:18 28° S 04:00:38 90° S 04:05:07 10° N
USA 234 3.5 03:56:30 10° NE 04:02:59 67° NNW 04:08:24 16° WSW
NOSS 2-3 (D) 4.4 04:04:05 23° S 04:06:52 53° ESE 04:12:12 10° NE
USA 161 4.4 04:04:53 10° ESE 04:07:03 18° ENE 04:09:12 10° NNE
ADEOS II 4.2 04:12:00 10° NE 04:16:09 23° E 04:20:16 10° SE
Resurs 1-4 Rocket 2.1 04:11:30 10° N 04:16:46 71° WNW 04:20:23 20° SSW
Cosmos 1340 Rocket 3.7 04:15:45 10° N 04:19:38 49° ENE 04:23:28 10° SSE
Cosmos 2184 Rocket 4.1 04:15:20 20° SSW 04:19:46 65° WNW 04:25:55 10° N
Cosmos 1825 Rocket 4.2 04:17:15 10° NNW 04:21:20 37° W 04:23:30 22° SW
Cosmos 1758 Rocket 3.8 04:18:23 10° NNW 04:22:35 48° W 04:25:18 20° SSW
ARIANE 5 R/B 2.6 04:17:45 10° N 04:22:51 71° WNW 04:26:37 19° SSW
ADEOS Rocket 3.8 04:21:38 10° N 04:27:29 38° WNW 04:31:34 17° WSW
Cosmos 2237 4.4 04:22:59 17° SSW 04:27:29 72° ESE 04:33:10 10° NNE
BREEZE-M DEB (TANK) 2.9 04:25:33 10° W 04:29:51 44° N 04:32:09 10° ENE
ATLAS 2AS CENTAUR R/B 3.2 04:26:52 16° SSW 04:33:24 71° ESE 04:41:31 10° NE
BREEZE M DEB (TANK) 2.9 04:32:31 21° WSW 04:33:43 33° SSW 04:37:29 10° SE
CZ-2D R/B 2.6 04:31:17 10° N 04:36:36 50° WNW 04:40:47 16° SW
Lacrosse 5 rocket 2.8 04:33:16 10° NW 04:37:00 40° NNE 04:40:57 10° ESE
UNKNOWN OBJECT B 2.7 04:35:04 10° N 04:38:52 80° WNW 04:42:04 15° SSW
Cosmos 2263 Rocket 3.4 04:35:15 10° NW 04:39:36 23° W 04:42:29 16° SW
Cosmos 1271 Rocket 2.8 04:36:09 13° S 04:39:39 85° E 04:43:40 10° NNE
Cosmos 2228 3.0 04:36:56 16° SSW 04:40:11 64° W 04:44:29 10° N
Cosmos 1184 Rocket 2.8 04:38:05 10° NNW 04:41:23 59° W 04:44:29 11° S
NOSS 2-3 (E) 4.0 04:41:49 17° SW 04:45:37 77° NW 04:51:21 10° NE
In-Cosmos 22 4.4 04:41:30 10° N 04:46:54 70° ENE 04:52:10 10° SSE
Nadezhda 3 Rocket 4.0 04:41:14 10° NNW 04:47:24 66° W 04:53:37 10° S
Cosmos 2360 Rocket 2.6 04:44:09 15° SW 04:48:42 52° WNW 04:54:13 10° NNE
Cosmos 44 4.1 04:45:52 10° WNW 04:49:26 25° WSW 04:53:04 10° SSW
Cosmos 389 Rocket 2.8 04:47:27 10° S 04:50:58 69° E 04:54:33 10° NNE
COSMOS 2428 2.8 04:45:35 11° SSW 04:51:02 80° ESE 04:56:49 10° NNE
Cosmos 1980 Rocket 4.5 04:49:13 10° WNW 04:51:19 12° NW 04:53:27 10° NNW
Cosmos 2219 Rocket 2.9 04:47:34 10° S 04:53:02 52° ESE 04:58:33 10° NE
Cosmos 1953 4.4 04:50:00 10° SSE 04:53:25 27° E 04:56:50 10° NNE
DELTA 2 R/B (1) 4.2 04:49:16 14° SW 04:53:33 39° SSE 04:58:41 10° ESE
Cosmos 2237 Rocket 3.8 04:51:13 10° SSE 04:56:04 31° ESE 05:00:55 10° NE
Cosmos 962 Rocket 4.5 04:50:13 10° S 04:56:21 83° W 05:02:30 10° N
SL-8 Rocket 4.5 04:50:42 10° S 04:56:55 64° E 05:03:10 10° NNE
Cosmos 2058 Rocket 3.9 04:56:09 13° SW 04:59:46 37° WNW 05:03:59 10° N
Cosmos 972 Rocket 3.9 04:55:44 11° SSW 05:00:25 71° WNW 05:05:27 10° NNE
Cosmos 1844 Rocket 2.7 04:55:06 10° NNW 05:00:43 66° WSW 05:06:20 10° SSE
MOS 1 Rocket 4.0 04:59:57 10° N 05:04:09 35° WNW 05:07:59 11° SW
Aureole 2 Rocket 3.2 05:00:20 10° S 05:04:28 66° ESE 05:08:29 10° NNE
ATLAS 3B R/B 2.6 04:57:57 10° NW 05:04:43 74° SW 05:11:11 10° SSE
Meteor 2-5 Rocket 4.3 05:02:25 10° NNW 05:07:37 39° W 05:12:52 10° SSW
Centaur D AC-29 3.7 05:04:23 10° SSW 05:08:08 17° SSE 05:16:07 10° SE
Cosmos 1354 Rocket 4.4 05:03:44 10° NNW 05:08:45 44° WSW 05:13:45 10° S
Cosmos 2333 Rocket 2.8 05:04:34 10° S 05:10:08 57° ESE 05:15:42 10° NNE
BREEZE M DEB (TANK) 3.2 05:09:02 10° WNW 05:11:34 53° NNE 05:18:01 10° E
Cosmos 2322 4.4 05:06:53 10° SW 05:12:08 43° NW 05:17:32 10° NNE
Cosmos 1812 Rocket 3.5 05:07:50 10° S 05:12:12 86° W 05:16:35 10° N
Okean O Rocket 2.6 05:08:07 10° NNE 05:12:27 47° E 05:16:45 10° S
Cosmos 2154 Rocket 4.4 05:07:59 10° SSW 05:14:01 47° WNW 05:20:05 10° N
SeaSat 1 2.4 05:09:26 10° SSE 05:14:23 82° WSW 05:19:21 10° NNW
Okean 3 Rocket 4.3 05:11:42 10° N 05:16:05 59° E 05:20:28 10° SSE
Meteor 1-24 Rocket 3.9 05:11:05 10° NNW 05:16:17 51° W 05:21:37 10° S
Cosmos 1544 3.1 05:13:58 10° SSW 05:17:40 76° W 05:21:25 10° N
SL-8 R/B 3.7 05:14:40 10° WSW 05:19:30 85° SSE 05:24:22 10° ENE
Cosmos 1727 Rocket 4.5 05:13:39 10° N 05:19:52 67° E 05:26:00 10° SSE
Cosmos 2278 Rocket 2.4 05:19:07 10° NNW 05:24:49 81° ENE 05:30:30 10° SSE
NOSS 0 Rocket 4.4 05:19:38 10° SSW 05:25:42 63° ESE 05:31:52 10° NNE
USA 238 DEB 3.8 05:18:51 10° NW 05:25:53 68° WSW 05:32:57 10° SSE
USA 238 3.8 05:18:57 10° NW 05:26:00 69° WSW 05:33:04 10° SSE
Cosmos 1766 3.8 05:23:34 10° SSW 05:27:17 42° WNW 05:31:04 10° N
ISS -2.1 05:27:29 10° W 05:29:28 15° SW 05:31:26 10° S
MOS 1-B 4.5 05:26:10 10° N 05:31:57 68° WNW 05:37:42 10° SSW
Cosmos 2341 Rocket 4.5 05:27:05 10° SSW 05:33:12 47° WNW 05:39:20 10° N
H-2A R/B 4.3 05:27:36 10° W 05:37:29 18° SW 05:41:44 10° S
